This demonstration page uses our WeatherBlox Daily Observations layout. Learn more.

38.89511, -77.03637

Hourly Observations for August 26, 2015

Temp ( °F °C ) Dew Point ( °F °C ) Humidity (%) Winds ( mph kmh ) Pressure ( in mb ) Visibility ( mi km ) Precip ( " mm )
12:52 am 00:52 Partly Cloudy 70 21 55 13 60 60 N 7 11 29.97 1015 10 16.09344 0 0
1:52 am 01:52 Partly Cloudy 70 21 55 13 60 60 NNW 6 9 29.97 1015 10 16.09344 0 0
2:52 am 02:52 Mostly Cloudy 70 21 57 14 64 64 N 7 11 29.97 1015 10 16.09344 0 0
3:52 am 03:52 Mostly Cloudy 70 21 55 13 60 60 NNW 7 11 29.97 1015 10 16.09344 0 0
4:52 am 04:52 Mostly Cloudy 70 21 57 14 64 64 NNW 7 11 30 1016 10 16.09344 0 0
5:52 am 05:52 Mostly Cloudy 66 19 57 14 73 73 NNW 8 13 30 1016 10 16.09344 0 0
6:52 am 06:52 Mostly Cloudy 66 19 55 13 68 68 NNW 8 13 30.03 1017 10 16.09344 0 0
7:52 am 07:52 Partly Cloudy 70 21 55 13 60 60 NNW 12 19 30.03 1017 10 16.09344 0 0
8:52 am 08:52 Partly Cloudy 72 22 54 12 53 53 NNW 12 19 30.03 1017 10 16.09344 0 0
9:52 am 09:52 Mostly Cloudy 72 22 54 12 53 53 NW 12 19 30.06 1018 10 16.09344 0 0
10:52 am 10:52 Mostly Cloudy 75 24 54 12 47 47 N 6 9 30.06 1018 10 16.09344 0 0
11:52 am 11:52 Mostly Cloudy 77 25 54 12 44 44 WNW 8 13 30.06 1018 10 16.09344 0 0
12:52 pm 12:52 Mostly Cloudy 77 25 54 12 44 44 W 5 7 30.06 1018 10 16.09344 0 0
1:52 pm 13:52 Mostly Cloudy 79 26 54 12 42 42 N 7 11 30.06 1018 10 16.09344 0 0
2:52 pm 14:52 Partly Cloudy 79 26 54 12 42 42 N 6 9 30.03 1017 10 16.09344 0 0
3:52 pm 15:52 Mostly Cloudy 81 27 55 13 42 42 NW 10 17 30.03 1017 10 16.09344 0 0
4:52 pm 16:52 Mostly Cloudy 81 27 54 12 39 39 N 14 22 30.03 1017 10 16.09344 0 0
5:52 pm 17:52 Partly Cloudy 79 26 54 12 42 42 NNW 12 19 30 1016 10 16.09344 0 0
6:52 pm 18:52 Mostly Sunny 77 25 52 11 42 42 NW 9 15 30 1016 10 16.09344 0 0
7:52 pm 19:52 Mostly Clear 75 24 52 11 44 44 NNW 7 11 30.03 1017 10 16.09344 0 0
8:52 pm 20:52 Mostly Clear 75 24 52 11 44 44 NW 7 11 30.06 1018 10 16.09344 0 0
9:52 pm 21:52 Clear 72 22 54 12 53 53 N 6 9 30.06 1018 10 16.09344 0 0
10:52 pm 22:52 Mostly Clear 72 22 54 12 53 53 NW 3 6 30.06 1018 10 16.09344 0 0
11:52 pm 23:52 Mostly Clear 70 21 55 13 60 60 NNW 6 9 30.09 1019 10 16.09344 0 0

Powered by AerisWeather